Regional Weather Roundup
Issued by NWS

Home | Current Version | Previous Version | Text Only | Print | Product List | Glossary Off
Versions: 1 2 3 4 5 6 7 8 9 10 11 12 13 14 15 16 17 18 19 20 21 22 23 24 25 26 27 28 29 30 31 32 33 34 35 36 37 38 39 40 41 42 43 44 45 46 47 48 49 50

000
ASUS45 KCYS 262310
RWRWY

WYOMING REGIONAL WEATHER ROUNDUP
NATIONAL WEATHER SERVICE CHEYENNE WY
400 PM MST THU FEB 26 2015

NOTE:  "FAIR" INDICATES FEW OR NO CLOUDS BELOW 12,000 FEET
WITH NO SIGNIFICANT WEATHER AND/OR OBSTRUCTIONS TO VISIBILITY.

WYZ001-270000-
YELLOWSTONE NATIONAL PARK

CITY           SKY/WX    TMP DP  RH WIND       PRES   REMARKS
LK YELLOWSTONE   N/A     22  -2  35 VRB7      29.88F WCI  13
W YELLOWSTONE  NOT AVBL

$$
WYZ002>013-054>058-071-098>099-270000-
NORTHERN WYOMING

CITY           SKY/WX    TMP DP  RH WIND       PRES   REMARKS
JACKSON        SUNNY     23  16  74 NE6       29.88F WCI  16
CODY           PTSUNNY   12   7  79 NE8       30.13S WCI   1
GREYBULL       PTSUNNY   21   4  47 VRB5      30.19F WCI  15
WORLAND        CLOUDY    19   7  59 W5        30.17F WCI  12
SHERIDAN       CLOUDY    11   1  64 S6        30.27F WCI   1
BUFFALO        CLOUDY     7   0  73 N5        30.20S WCI  -2
GILLETTE       FAIR       9  -5  53 NE3       30.24F
HULETT         FAIR      10  -2  56 NE6       30.28S WCI   1
NEWCASTLE      FAIR      18  -4  38 NW13      30.24S WCI   4

$$
WYZ014>020-022>026-101>103-270000-
CENTRAL WYOMING

CITY           SKY/WX    TMP DP  RH WIND       PRES   REMARKS
BIG PINEY      CLOUDY    25  15  66 SE9       29.88F WCI  15
PINEDALE       CLOUDY    23  16  74 E7        29.89S WCI  15
DUBOIS         CLOUDY    10   5  79 SE13      29.94S HAZE    WCI  -5
LANDER         LGT SNOW  14   7  73 NE8       30.06S WCI   3
RIVERTON       CLOUDY    14   5  67 NE12      30.08S WCI   0
CASPER         CLOUDY    12   2  64 NE15      30.13F WCI  -4
DOUGLAS        CLOUDY    13   5  70 NE9       30.19S WCI   1

$$
WYZ021-027>030-104>119-270000-
SOUTHERN WYOMING

CITY           SKY/WX    TMP DP  RH WIND       PRES   REMARKS
EVANSTON       FLURRIES  25  22  88 E9        29.85R WCI  15
KEMMERER       CLOUDY    27  19  74 E7        29.87S WCI  19
FORT BRIDGER   CLOUDY    28  23  82 E6        29.89F WCI  21
ROCK SPRINGS   CLOUDY    21  14  74 NE15G25   29.90S WCI   8
DIXON          CLOUDY    28  19  69 CALM      29.89F
RAWLINS        CLOUDY    19   8  62 NE16      29.94F WCI   4
SARATOGA       CLOUDY    21  12  68 N5        29.91S WCI  15
LARAMIE        CLOUDY    10   2  69 SE18      29.94S WCI  -8
CHEYENNE       LGT SNOW  11   4  73 E10       30.07S VSB 3/4 WCI  -3
TORRINGTON     CLOUDY    16   5  62 E9        30.24R WCI   4
PINE BLUFFS    CLOUDY    14   9  79 E8        30.17S HAZE    WCI   3

$$



USA.gov is the U.S. government's official web portal to all federal, state and local government web resources and services.